Hourly Weather Goianesia

Today, 13 May, Thursday

Time Temperature Precipitation Wind Pressure Humidity
00:00 +22°C° 0 mm 1 mps 706 mmHg 59%
01:00 +19°C° 0 mm 0 mps 705 mmHg 61%
02:00 +19°C° 0 mm 0 mps 705 mmHg 63%
03:00 +18°C° 0 mm 0 mps 705 mmHg 64%
04:00 +18°C° 0 mm 0 mps 705 mmHg 66%
05:00 +17°C° 0 mm 0 mps 705 mmHg 67%
06:00 +17°C° 0 mm 0 mps 705 mmHg 69%
07:00 +19°C° 0 mm 0 mps 706 mmHg 62%
08:00 +22°C° 0 mm 0 mps 707 mmHg 55%
09:00 +26°C° 0 mm 1 mps 708 mmHg 48%
10:00 +28°C° 0 mm 1 mps 708 mmHg 43%
11:00 +30°C° 0 mm 1 mps 707 mmHg 38%
12:00 +32°C° 0 mm 1 mps 707 mmHg 33%
13:00 +32°C° 0 mm 1 mps 707 mmHg 32%
14:00 +32°C° 0 mm 1 mps 706 mmHg 32%
15:00 +32°C° 0 mm 1 mps 705 mmHg 31%
16:00 +30°C° 0 mm 1 mps 705 mmHg 38%
17:00 +27°C° 0 mm 1 mps 705 mmHg 45%
18:00 +25°C° 0 mm 1 mps 705 mmHg 52%
19:00 +24°C° 0 mm 1 mps 705 mmHg 54%
20:00 +23°C° 0 mm 1 mps 705 mmHg 55%
21:00 +22°C° 0 mm 1 mps 706 mmHg 56%
22:00 +22°C° 0 mm 1 mps 706 mmHg 57%
23:00 +22°C° 0 mm 1 mps 705 mmHg 58%

Tomorrow, 14 May, Friday

Time Temperature Precipitation Wind Pressure Humidity
00:00 +21°C° 0 mm 1 mps 705 mmHg 59%
01:00 +21°C° 0 mm 1 mps 705 mmHg 61%
02:00 +20°C° 0 mm 1 mps 705 mmHg 63%
03:00 +20°C° 0 mm 1 mps 705 mmHg 64%
04:00 +20°C° 0 mm 1 mps 705 mmHg 65%
05:00 +17°C° 0 mm 0 mps 705 mmHg 66%
06:00 +17°C° 0 mm 0 mps 705 mmHg 66%
07:00 +22°C° 0 mm 1 mps 706 mmHg 60%
08:00 +24°C° 0 mm 1 mps 707 mmHg 53%
09:00 +26°C° 0 mm 1 mps 707 mmHg 46%
10:00 +28°C° 0 mm 1 mps 707 mmHg 41%
11:00 +30°C° 0 mm 1 mps 707 mmHg 36%
12:00 +32°C° 0 mm 2 mps 707 mmHg 31%
13:00 +32°C° 0 mm 1 mps 706 mmHg 30%
14:00 +33°C° 0 mm 1 mps 706 mmHg 29%
15:00 +33°C° 0 mm 1 mps 705 mmHg 28%
16:00 +31°C° 0 mm 1 mps 705 mmHg 35%
17:00 +28°C° 0 mm 1 mps 705 mmHg 41%
18:00 +26°C° 0 mm 1 mps 704 mmHg 47%
19:00 +25°C° 0 mm 1 mps 705 mmHg 49%
20:00 +24°C° 0 mm 1 mps 705 mmHg 50%
21:00 +23°C° 0 mm 1 mps 705 mmHg 52%
22:00 +23°C° 0 mm 1 mps 705 mmHg 53%
23:00 +23°C° 0 mm 1 mps 705 mmHg 54%

Day after tomorrow, 15 May, Saturday

Time Temperature Precipitation Wind Pressure Humidity
00:00 +23°C° 0 mm 1 mps 705 mmHg 55%
01:00 +22°C° 0 mm 1 mps 705 mmHg 55%
02:00 +22°C° 0 mm 1 mps 705 mmHg 55%
03:00 +22°C° 0 mm 1 mps 705 mmHg 55%
04:00 +22°C° 0 mm 1 mps 705 mmHg 55%
05:00 +22°C° 0 mm 1 mps 705 mmHg 56%
06:00 +21°C° 0 mm 1 mps 705 mmHg 56%
07:00 +23°C° 0 mm 1 mps 706 mmHg 52%
08:00 +25°C° 0 mm 2 mps 707 mmHg 48%
09:00 +27°C° 0 mm 2 mps 707 mmHg 44%
10:00 +28°C° 0 mm 2 mps 707 mmHg 40%
11:00 +30°C° 0 mm 2 mps 707 mmHg 35%
12:00 +32°C° 0 mm 2 mps 707 mmHg 31%
13:00 +32°C° 0 mm 2 mps 706 mmHg 30%
14:00 +32°C° 0 mm 2 mps 706 mmHg 29%
15:00 +33°C° 0 mm 1 mps 705 mmHg 29%
16:00 +31°C° 0 mm 1 mps 705 mmHg 35%
17:00 +28°C° 0 mm 1 mps 705 mmHg 41%
18:00 +26°C° 0 mm 1 mps 705 mmHg 47%
19:00 +25°C° 0 mm 1 mps 705 mmHg 49%
20:00 +25°C° 0 mm 1 mps 705 mmHg 50%
21:00 +24°C° 0 mm 1 mps 706 mmHg 52%
22:00 +23°C° 0 mm 1 mps 706 mmHg 53%
23:00 +23°C° 0 mm 1 mps 705 mmHg 54%

16 May, Sunday

Time Temperature Precipitation Wind Pressure Humidity
00:00 +22°C° 0 mm 1 mps 705 mmHg 55%
01:00 +22°C° 0 mm 1 mps 705 mmHg 56%
02:00 +22°C° 0 mm 1 mps 705 mmHg 57%
03:00 +21°C° 0 mm 1 mps 704 mmHg 58%
04:00 +21°C° 0 mm 1 mps 705 mmHg 59%
05:00 +21°C° 0 mm 1 mps 705 mmHg 60%
06:00 +20°C° 0 mm 1 mps 705 mmHg 61%
07:00 +22°C° 0 mm 1 mps 706 mmHg 57%
08:00 +24°C° 0 mm 1 mps 706 mmHg 52%
09:00 +26°C° 0 mm 1 mps 707 mmHg 48%
10:00 +28°C° 0 mm 1 mps 707 mmHg 43%
11:00 +30°C° 0 mm 1 mps 707 mmHg 38%
12:00 +32°C° 0 mm 1 mps 707 mmHg 33%
13:00 +32°C° 0 mm 1 mps 707 mmHg 33%
14:00 +32°C° 0 mm 1 mps 706 mmHg 33%
15:00 +32°C° 0 mm 1 mps 705 mmHg 33%
16:00 +30°C° 0 mm 1 mps 705 mmHg 38%
17:00 +28°C° 0 mm 1 mps 705 mmHg 43%
18:00 +27°C° 0 mm 1 mps 705 mmHg 48%
19:00 +24°C° 0 mm 0 mps 705 mmHg 50%
20:00 +23°C° 0 mm 0 mps 705 mmHg 51%
21:00 +22°C° 0 mm 0 mps 706 mmHg 53%
22:00 +22°C° 0 mm 0 mps 706 mmHg 54%
23:00 +21°C° 0 mm 0 mps 706 mmHg 55%

17 May, Monday

Time Temperature Precipitation Wind Pressure Humidity
00:00 +23°C° 0 mm 1 mps 706 mmHg 56%
01:00 +23°C° 0 mm 1 mps 706 mmHg 57%
02:00 +22°C° 0 mm 1 mps 705 mmHg 58%
03:00 +20°C° 0 mm 0 mps 705 mmHg 59%
04:00 +20°C° 0 mm 0 mps 705 mmHg 60%
05:00 +19°C° 0 mm 0 mps 705 mmHg 62%
06:00 +19°C° 0 mm 0 mps 705 mmHg 63%
07:00 +21°C° 0 mm 0 mps 706 mmHg 58%
08:00 +23°C° 0 mm 0 mps 707 mmHg 52%
09:00 +25°C° 0 mm 0 mps 707 mmHg 47%
10:00 +27°C° 0 mm 0 mps 707 mmHg 43%
11:00 +31°C° 0 mm 1 mps 707 mmHg 38%
12:00 +33°C° 0 mm 1 mps 707 mmHg 34%
13:00 +33°C° 0 mm 1 mps 707 mmHg 33%
14:00 +34°C° 0 mm 2 mps 706 mmHg 33%
15:00 +34°C° 0 mm 2 mps 705 mmHg 33%
16:00 +31°C° 0 mm 2 mps 705 mmHg 38%
17:00 +29°C° 0 mm 1 mps 705 mmHg 44%
18:00 +27°C° 0 mm 1 mps 705 mmHg 50%
19:00 +26°C° 0 mm 1 mps 705 mmHg 53%
20:00 +25°C° 0 mm 1 mps 705 mmHg 57%
21:00 +24°C° 0 mm 1 mps 706 mmHg 61%
22:00 +23°C° 0 mm 1 mps 706 mmHg 63%
23:00 +23°C° 0 mm 1 mps 706 mmHg 64%

18 May, Tuesday

Time Temperature Precipitation Wind Pressure Humidity
00:00 +22°C° 0 mm 1 mps 705 mmHg 66%
01:00 +22°C° 0 mm 1 mps 705 mmHg 67%
02:00 +20°C° 0 mm 0 mps 705 mmHg 69%
03:00 +20°C° 0 mm 0 mps 705 mmHg 70%
04:00 +19°C° 0 mm 0 mps 705 mmHg 71%
05:00 +19°C° 0 mm 0 mps 705 mmHg 73%
06:00 +19°C° 0 mm 0 mps 705 mmHg 74%
07:00 +21°C° 0 mm 0 mps 706 mmHg 67%
08:00 +23°C° 0 mm 0 mps 706 mmHg 60%
09:00 +25°C° 0 mm 0 mps 707 mmHg 53%
10:00 +27°C° 0 mm 0 mps 707 mmHg 47%
11:00 +29°C° 0 mm 0 mps 707 mmHg 42%
12:00 +31°C° 0 mm 0 mps 707 mmHg 36%
13:00 +33°C° 0 mm 1 mps 706 mmHg 37%
14:00 +32°C° 0 mm 1 mps 705 mmHg 38%
15:00 +32°C° 0 mm 1 mps 705 mmHg 39%
16:00 +30°C° 0 mm 1 mps 705 mmHg 43%
17:00 +29°C° 0 mm 1 mps 705 mmHg 47%
18:00 +27°C° 0 mm 1 mps 705 mmHg 51%
19:00 +27°C° 0 mm 1 mps 705 mmHg 52%
20:00 +26°C° 0 mm 1 mps 705 mmHg 54%
21:00 +26°C° 0 mm 1 mps 706 mmHg 55%
22:00 +25°C° 0 mm 1 mps 706 mmHg 56%
23:00 +25°C° 0 mm 1 mps 706 mmHg 57%
Show more